| time (UTC) | temp F | wind direction | speed knots | gust knots | rain 1hr in | rain 24hr in | rain mn in | humidity % | barometer mb |
| 20260902123216 | 68 | 183 | 7.0 | 12.2 | 0.00 | 0.00 | 0.00 | 50 | 1018.8 |
| 20260902122215 | 66 | 191 | 3.5 | 7.0 | 0.00 | 0.00 | 0.00 | 54 | 1018.4 |
| 20260902121216 | 65 | 140 | 0.0 | 1.7 | 0.00 | 0.00 | 0.00 | 62 | 1018.2 |
| 20260902120215 | 65 | 43 | 3.5 | 4.3 | 0.00 | 0.00 | 0.00 | 65 | 1018.3 |
| 20260902115235 | 65 | 325 | 0.9 | 3.5 | 0.00 | 0.00 | 0.00 | 64 | 1018.5 |
| 20260902114215 | 65 | 55 | 5.2 | 7.8 | 0.00 | 0.00 | 0.00 | 65 | 1018.5 |
| 20260902113216 | 65 | 37 | 2.6 | 4.3 | 0.00 | 0.00 | 0.00 | 66 | 1018.7 |
| 20260902112215 | 65 | 40 | 3.5 | 5.2 | 0.00 | 0.00 | 0.00 | 64 | 1018.8 |
| 20260902111215 | 66 | 73 | 7.0 | 7.8 | 0.00 | 0.00 | 0.00 | 61 | 1018.9 |
| 20260902110235 | 66 | 158 | 0.0 | 3.5 | 0.00 | 0.00 | 0.00 | 58 | 1019.3 |
| 20260902105215 | 67 | 128 | 2.6 | 5.2 | 0.00 | 0.00 | 0.00 | 55 | 1019.1 |
| 20260902104235 | 67 | 134 | 3.5 | 7.8 | 0.00 | 0.00 | 0.00 | 54 | 1019.1 |
| 20260902103215 | 66 | 116 | 2.6 | 5.2 | 0.00 | 0.00 | 0.00 | 54 | 1018.8 |
| 20260902102215 | 66 | 139 | 2.6 | 5.2 | 0.00 | 0.00 | 0.00 | 55 | 1018.9 |
| 20260902101215 | 66 | 75 | 1.7 | 2.6 | 0.00 | 0.00 | 0.00 | 57 | 1018.8 |
| 20260902100215 | 65 | 76 | 0.0 | 0.9 | 0.00 | 0.00 | 0.00 | 59 | 1019.3 |
| 20260902095215 | 65 | 65 | 2.6 | 3.5 | 0.00 | 0.00 | 0.00 | 61 | 1019.3 |
| 20260902094215 | 65 | 92 | 1.7 | 3.5 | 0.00 | 0.00 | 0.00 | 61 | 1019.4 |
| 20260902093215 | 65 | 59 | 3.5 | 7.0 | 0.00 | 0.00 | 0.00 | 61 | 1018.7 |
| 20260902092215 | 65 | 52 | 3.5 | 5.2 | 0.00 | 0.00 | 0.00 | 60 | 1018.8 |
| 20260902091257 | 64 | 52 | 2.6 | 3.5 | 0.00 | 0.00 | 0.00 | 62 | 1018.5 |
| 20260902090235 | 65 | 58 | 3.5 | 4.3 | 0.00 | 0.00 | 0.00 | 61 | 1018.9 |
| 20260902085215 | 65 | 56 | 3.5 | 4.3 | 0.00 | 0.00 | 0.00 | 60 | 1019.0 |
| 20260902084215 | 65 | 34 | 2.6 | 4.3 | 0.00 | 0.00 | 0.00 | 62 | 1019.0 |
| 20260902083215 | 65 | 341 | 4.3 | 5.2 | 0.00 | 0.00 | 0.00 | 58 | 1019.0 |
| 20260902082215 | 66 | 26 | 1.7 | 2.6 | 0.00 | 0.00 | 0.00 | 58 | 1019.4 |
| 20260902081217 | 66 | 51 | 1.7 | 3.5 | 0.00 | 0.00 | 0.00 | 57 | 1019.5 |
| 20260902080237 | 65 | 42 | 1.7 | 3.5 | 0.00 | 0.00 | 0.00 | 59 | 1019.0 |
| 20260902075217 | 65 | 329 | 2.6 | 3.5 | 0.00 | 0.00 | 0.00 | 57 | 1019.0 |
| 20260902074217 | 67 | 53 | 1.7 | 2.6 | 0.00 | 0.00 | 0.00 | 54 | 1019.2 |
| 20260902073217 | 67 | 75 | 4.3 | 6.1 | 0.00 | 0.00 | 0.00 | 51 | 1019.2 |
| 20260902072217 | 66 | 0.0 | 0.9 | 0.00 | 0.00 | 0.00 | 50 | 1018.7 | |
| 20260902071257 | 66 | 355 | 0.0 | 0.9 | 0.00 | 0.00 | 0.00 | 51 | 1018.6 |
| 20260902070217 | 65 | 355 | 0.0 | 0.9 | 0.00 | 0.00 | 0.00 | 53 | 1018.3 |
| 20260902065237 | 65 | 355 | 1.7 | 2.6 | 0.00 | 0.00 | 0.00 | 58 | 1018.4 |
| 20260902064217 | 66 | 355 | 0.9 | 1.7 | 0.00 | 0.00 | 0.00 | 57 | 1018.4 |
| 20260902063216 | 65 | 355 | 2.6 | 4.3 | 0.00 | 0.00 | 0.00 | 56 | 1018.0 |
| 20260902062217 | 66 | 355 | 1.7 | 1.7 | 0.00 | 0.00 | 0.00 | 56 | 1018.1 |
| 20260902061217 | 67 | 355 | 1.7 | 2.6 | 0.00 | 0.00 | 0.00 | 56 | 1018.2 |
| 20260902060216 | 67 | 355 | 0.9 | 1.7 | 0.00 | 0.00 | 0.00 | 56 | 1018.3 |
| 20260902055216 | 68 | 355 | 0.0 | 1.7 | 0.00 | 0.00 | 0.00 | 55 | 1018.5 |
| 20260902054236 | 68 | 355 | 2.6 | 2.6 | 0.00 | 0.00 | 0.00 | 55 | 1018.5 |
| 20260902053216 | 67 | 355 | 1.7 | 2.6 | 0.00 | 0.00 | 0.00 | 56 | 1017.8 |
| 20260902052216 | 67 | 355 | 2.6 | 3.5 | 0.00 | 0.00 | 0.00 | 57 | 1017.9 |
| 20260902051215 | 67 | 355 | 3.5 | 5.2 | 0.00 | 0.00 | 0.00 | 56 | 1017.9 |
| 20260902050215 | 68 | 355 | 3.5 | 4.3 | 0.00 | 0.00 | 0.00 | 54 | 1017.9 |
| 20260902045216 | 69 | 324 | 4.3 | 7.0 | 0.00 | 0.00 | 0.00 | 53 | 1018.0 |
| 20260902044215 | 70 | 319 | 2.6 | 3.5 | 0.00 | 0.00 | 0.00 | 50 | 1018.4 |
| 20260902043216 | 70 | 0.0 | 0.0 | 0.00 | 0.00 | 0.00 | 49 | 1018.3 | |
| 20260902042215 | 70 | 319 | 1.7 | 3.5 | 0.00 | 0.00 | 0.00 | 50 | 1018.4 |
| 20260902041215 | 70 | 257 | 1.7 | 2.6 | 0.00 | 0.00 | 0.00 | 51 | 1018.4 |
| 20260902040215 | 71 | 257 | 0.9 | 2.6 | 0.00 | 0.00 | 0.00 | 51 | 1018.6 |
| 20260902035215 | 71 | 38 | 2.6 | 3.5 | 0.00 | 0.00 | 0.00 | 53 | 1018.6 |
| 20260902034215 | 72 | 319 | 2.6 | 3.5 | 0.00 | 0.00 | 0.00 | 49 | 1018.8 |
| 20260902033215 | 73 | 0.0 | 0.0 | 0.00 | 0.00 | 0.00 | 44 | 1018.6 | |
| 20260902032215 | 74 | 198 | 0.9 | 2.6 | 0.00 | 0.00 | 0.00 | 42 | 1018.3 |
| 20260902031216 | 74 | 165 | 2.6 | 4.3 | 0.00 | 0.00 | 0.00 | 42 | 1018.2 |
| 20260902030215 | 75 | 156 | 3.5 | 6.1 | 0.00 | 0.00 | 0.00 | 39 | 1017.9 |
| 20260902025215 | 75 | 161 | 2.6 | 5.2 | 0.00 | 0.00 | 0.00 | 38 | 1017.9 |
| 20260902024215 | 75 | 178 | 5.2 | 10.4 | 0.00 | 0.00 | 0.00 | 38 | 1017.8 |
| 20260902023215 | 75 | 167 | 3.5 | 7.0 | 0.00 | 0.00 | 0.00 | 40 | 1017.8 |
| 20260902022215 | 75 | 178 | 3.5 | 6.1 | 0.00 | 0.00 | 0.00 | 42 | 1017.7 |
| 20260902021235 | 75 | 172 | 2.6 | 5.2 | 0.00 | 0.00 | 0.00 | 42 | 1017.8 |
| 20260902020215 | 75 | 187 | 7.0 | 12.2 | 0.00 | 0.00 | 0.00 | 41 | 1017.2 |
| 20260902015215 | 75 | 174 | 3.5 | 7.0 | 0.00 | 0.00 | 0.00 | 44 | 1017.2 |
| 20260902014215 | 76 | 188 | 5.2 | 7.8 | 0.00 | 0.00 | 0.00 | 44 | 1017.8 |
| 20260902013215 | 76 | 180 | 4.3 | 7.8 | 0.00 | 0.00 | 0.00 | 43 | 1017.5 |
| 20260902012215 | 77 | 159 | 4.3 | 9.6 | 0.00 | 0.00 | 0.00 | 43 | 1017.7 |
| 20260902011235 | 77 | 153 | 7.8 | 13.0 | 0.00 | 0.00 | 0.00 | 42 | 1017.7 |
| 20260902010215 | 77 | 156 | 5.2 | 10.4 | 0.00 | 0.00 | 0.00 | 41 | 1018.0 |
| 20260902005215 | 78 | 151 | 7.0 | 10.4 | 0.00 | 0.00 | 0.00 | 40 | 1018.1 |
| 20260902004215 | 77 | 161 | 5.2 | 11.3 | 0.00 | 0.01 | 0.00 | 40 | 1018.2 |
| 20260902003215 | 76 | 142 | 5.2 | 7.8 | 0.00 | 0.01 | 0.00 | 45 | 1017.6 |
| 20260902002235 | 76 | 112 | 8.7 | 13.0 | 0.00 | 0.01 | 0.00 | 47 | 1017.7 |
| 20260902001235 | 76 | 136 | 8.7 | 14.8 | 0.00 | 0.01 | 0.00 | 46 | 1017.8 |
| 20260902000215 | 77 | 155 | 8.7 | 13.9 | 0.00 | 0.01 | 0.00 | 45 | 1018.1 |
| 20260901235235 | 77 | 133 | 7.8 | 13.0 | 0.00 | 0.01 | 0.00 | 45 | 1018.4 |
| 20260901234215 | 76 | 117 | 6.1 | 9.6 | 0.00 | 0.01 | 0.00 | 46 | 1018.3 |
| 20260901233215 | 76 | 126 | 6.1 | 11.3 | 0.00 | 0.01 | 0.00 | 46 | 1018.3 |
| 20260901232215 | 77 | 147 | 4.3 | 11.3 | 0.00 | 0.01 | 0.00 | 45 | 1018.6 |
| 20260901231215 | 77 | 136 | 3.5 | 12.2 | 0.00 | 0.01 | 0.00 | 43 | 1018.6 |
| 20260901230215 | 77 | 104 | 8.7 | 12.2 | 0.00 | 0.01 | 0.00 | 43 | 1018.4 |
| 20260901225217 | 77 | 156 | 4.3 | 11.3 | 0.00 | 0.01 | 0.00 | 44 | 1018.5 |
| 20260901224217 | 77 | 153 | 7.8 | 13.0 | 0.00 | 0.01 | 0.00 | 45 | 1018.7 |
| 20260901223217 | 78 | 154 | 8.7 | 12.2 | 0.00 | 0.01 | 0.00 | 44 | 1019.3 |
| 20260901222217 | 77 | 164 | 1.7 | 8.7 | 0.00 | 0.01 | 0.00 | 47 | 1019.3 |
| 20260901221217 | 76 | 157 | 8.7 | 12.2 | 0.00 | 0.01 | 0.00 | 48 | 1019.3 |
| 20260901220217 | 75 | 111 | 5.2 | 9.6 | 0.00 | 0.01 | 0.00 | 48 | 1019.2 |
| 20260901215217 | 76 | 96 | 6.1 | 9.6 | 0.00 | 0.01 | 0.00 | 47 | 1019.8 |
| 20260901214217 | 78 | 167 | 7.0 | 12.2 | 0.00 | 0.01 | 0.00 | 42 | 1020.2 |
| 20260901213217 | 78 | 167 | 6.1 | 15.6 | 0.00 | 0.01 | 0.00 | 42 | 1020.3 |
| 20260901212216 | 74 | 139 | 7.0 | 10.4 | 0.00 | 0.01 | 0.00 | 47 | 1020.0 |
| 20260901211217 | 75 | 144 | 7.8 | 12.2 | 0.00 | 0.01 | 0.00 | 51 | 1020.5 |
| 20260901210216 | 76 | 250 | 3.5 | 7.8 | 0.00 | 0.01 | 0.00 | 45 | 1021.0 |
| 20260901205237 | 77 | 172 | 7.0 | 12.2 | 0.00 | 0.01 | 0.00 | 43 | 1020.9 |
| 20260901204236 | 76 | 187 | 5.2 | 7.8 | 0.00 | 0.01 | 0.00 | 47 | 1021.1 |
| 20260901203237 | 77 | 181 | 7.0 | 12.2 | 0.00 | 0.01 | 0.00 | 44 | 1021.0 |
| 20260901202216 | 77 | 220 | 6.1 | 16.5 | 0.00 | 0.01 | 0.00 | 45 | 1021.1 |
| 20260901201217 | 76 | 178 | 7.0 | 12.2 | 0.00 | 0.01 | 0.00 | 46 | 1021.4 |
| 20260901200216 | 76 | 168 | 6.1 | 10.4 | 0.00 | 0.01 | 0.00 | 50 | 1021.8 |
| 20260901195216 | 75 | 130 | 7.8 | 11.3 | 0.00 | 0.01 | 0.00 | 51 | 1021.8 |
| 20260901194217 | 75 | 143 | 3.5 | 8.7 | 0.00 | 0.01 | 0.00 | 51 | 1021.7 |
| 20260901193237 | 74 | 143 | 6.1 | 13.9 | 0.00 | 0.01 | 0.00 | 51 | 1021.8 |
| 20260901192216 | 74 | 94 | 6.1 | 10.4 | 0.00 | 0.01 | 0.00 | 52 | 1021.9 |
| 20260901191236 | 73 | 105 | 6.1 | 8.7 | 0.00 | 0.01 | 0.00 | 52 | 1022.0 |
| 20260901190216 | 72 | 138 | 3.5 | 10.4 | 0.00 | 0.01 | 0.00 | 54 | 1021.9 |
| 20260901185216 | 72 | 108 | 7.0 | 9.6 | 0.00 | 0.01 | 0.00 | 53 | 1021.9 |
| 20260901184216 | 72 | 99 | 3.5 | 7.8 | 0.00 | 0.01 | 0.00 | 54 | 1022.0 |
| 20260901183236 | 72 | 103 | 4.3 | 7.8 | 0.00 | 0.01 | 0.00 | 54 | 1022.2 |
| 20260901182216 | 71 | 142 | 6.1 | 8.7 | 0.00 | 0.01 | 0.00 | 56 | 1022.4 |
| 20260901181216 | 70 | 111 | 3.5 | 7.0 | 0.00 | 0.01 | 0.00 | 59 | 1022.2 |
| 20260901180216 | 69 | 109 | 1.7 | 5.2 | 0.00 | 0.01 | 0.00 | 59 | 1022.3 |
| 20260901175216 | 69 | 92 | 2.6 | 3.5 | 0.00 | 0.01 | 0.00 | 59 | 1022.5 |
| 20260901174236 | 69 | 101 | 4.3 | 7.0 | 0.00 | 0.01 | 0.00 | 58 | 1022.5 |
| 20260901173216 | 69 | 115 | 4.3 | 7.8 | 0.00 | 0.01 | 0.00 | 58 | 1022.5 |
| 20260901172216 | 68 | 89 | 5.2 | 7.8 | 0.00 | 0.01 | 0.00 | 59 | 1022.0 |
| 20260901171216 | 68 | 92 | 5.2 | 7.8 | 0.00 | 0.01 | 0.00 | 61 | 1022.2 |
| 20260901170216 | 68 | 151 | 5.2 | 7.8 | 0.00 | 0.01 | 0.00 | 60 | 1022.4 |
| 20260901165216 | 68 | 123 | 5.2 | 8.7 | 0.00 | 0.01 | 0.00 | 61 | 1022.1 |
| 20260901164216 | 67 | 144 | 3.5 | 4.3 | 0.00 | 0.01 | 0.00 | 62 | 1022.1 |
| 20260901163216 | 65 | 131 | 6.1 | 9.6 | 0.00 | 0.01 | 0.00 | 65 | 1021.7 |
| 20260901162216 | 65 | 90 | 6.1 | 7.0 | 0.00 | 0.01 | 0.00 | 65 | 1021.6 |
| 20260901161216 | 66 | 106 | 5.2 | 7.8 | 0.00 | 0.01 | 0.00 | 65 | 1021.7 |
| 20260901160216 | 67 | 156 | 2.6 | 6.1 | 0.00 | 0.01 | 0.00 | 64 | 1021.6 |
| 20260901155216 | 66 | 152 | 3.5 | 4.3 | 0.00 | 0.01 | 0.00 | 63 | 1021.6 |
| 20260901154216 | 66 | 149 | 0.0 | 0.9 | 0.00 | 0.01 | 0.00 | 63 | 1021.6 |
| 20260901153216 | 65 | 177 | 0.0 | 1.7 | 0.00 | 0.01 | 0.00 | 66 | 1021.7 |
| 20260901152216 | 64 | 177 | 0.9 | 2.6 | 0.00 | 0.01 | 0.00 | 68 | 1021.3 |
| 20260901151216 | 63 | 188 | 1.7 | 2.6 | 0.00 | 0.01 | 0.00 | 68 | 1021.3 |
| 20260901150236 | 62 | 220 | 2.6 | 4.3 | 0.00 | 0.01 | 0.00 | 71 | 1021.4 |
| 20260901145215 | 61 | 242 | 4.3 | 7.0 | 0.00 | 0.01 | 0.00 | 71 | 1021.0 |
| 20260901144216 | 61 | 229 | 1.7 | 2.6 | 0.00 | 0.01 | 0.00 | 72 | 1020.9 |
| 20260901143216 | 61 | 218 | 1.7 | 4.3 | 0.00 | 0.01 | 0.00 | 72 | 1021.1 |
| 20260901142236 | 61 | 248 | 1.7 | 3.5 | 0.00 | 0.01 | 0.00 | 72 | 1021.1 |
| 20260901141216 | 61 | 226 | 3.5 | 4.3 | 0.00 | 0.01 | 0.00 | 72 | 1021.2 |
| 20260901140236 | 60 | 329 | 0.9 | 1.7 | 0.00 | 0.01 | 0.00 | 72 | 1020.6 |
| 20260901135216 | 59 | 329 | 0.0 | 1.7 | 0.00 | 0.01 | 0.00 | 74 | 1020.4 |
| 20260901134215 | 58 | 329 | 2.6 | 3.5 | 0.00 | 0.01 | 0.00 | 76 | 1020.0 |
| 20260901133256 | 58 | 329 | 0.9 | 1.7 | 0.00 | 0.01 | 0.00 | 76 | 1019.9 |
| 20260901132215 | 58 | 293 | 1.7 | 3.5 | 0.00 | 0.01 | 0.00 | 76 | 1019.9 |
| 20260901131216 | 57 | 293 | 0.9 | 1.7 | 0.00 | 0.01 | 0.00 | 78 | 1019.8 |
| 20260901130216 | 57 | 139 | 0.0 | 0.9 | 0.00 | 0.01 | 0.00 | 79 | 1019.4 |
| 20260901125216 | 56 | 86 | 1.7 | 6.1 | 0.00 | 0.01 | 0.00 | 79 | 1019.3 |
| 20260901124215 | 57 | 287 | 0.9 | 1.7 | 0.00 | 0.01 | 0.00 | 79 | 1019.6 |